GW3636 Weather Reports


Display with metric or nautical units.
time (UTC)temp
F
wind
direction
speed
MPH
gust
MPH
rain 1hr
in
rain 24hr
in
rain mn
in
humidity
%
barometer
mb
20260504185045 67 219 14.0 23.0 0.00 0.00 0.00 56 1010.4
20260504184613 67 197 14.0 23.0 0.00 0.00 0.00 56 1010.5
20260504184046 68 182 10.0 20.0 0.00 0.00 0.00 55 1010.6
20260504183547 67 181 11.0 19.0 0.00 0.00 0.00 57 1010.6
20260504183059 66 188 10.0 20.0 0.00 0.00 0.00 58 1010.7
20260504182546 65 152 10.0 24.0 0.00 0.00 0.00 60 1010.9
20260504182047 65 178 13.0 24.0 0.00 0.00 0.00 60 1011.0
20260504181603 65 156 16.0 24.0 0.00 0.00 0.00 59 1011.1
20260504181047 66 178 6.0 21.0 0.00 0.00 0.00 57 1010.8
20260504180547 66 229 14.0 21.0 0.00 0.00 0.00 55 1011.8
20260504180056 66 244 11.0 19.0 0.00 0.00 0.00 55 1012.0
20260504175546 66 225 13.0 21.0 0.00 0.00 0.00 55 1011.9
20260504175047 67 223 12.0 23.0 0.00 0.00 0.00 54 1011.7
20260504174559 67 188 15.0 23.0 0.00 0.00 0.00 54 1011.4
20260504174047 67 225 17.0 22.0 0.00 0.00 0.00 53 1011.2
20260504173549 67 211 16.0 22.0 0.00 0.00 0.00 52 1011.0
20260504173103 68 229 15.0 22.0 0.00 0.00 0.00 52 1011.0
20260504172547 68 192 13.0 21.0 0.00 0.00 0.00 54 1010.9
20260504172048 67 200 13.0 20.0 0.00 0.00 0.00 55 1010.8
20260504171613 67 170 12.0 22.0 0.00 0.00 0.00 55 1010.8
20260504171047 66 203 13.0 24.0 0.00 0.00 0.00 57 1010.7
20260504170547 66 188 13.0 24.0 0.00 0.00 0.00 57 1010.8
20260504160105 62 206 16.0 26.0 0.00 0.00 0.00 62 1011.6
20260504151047 59 202 14.0 23.0 0.00 0.00 0.00 69 1012.2
20260504150548 59 217 12.0 23.0 0.00 0.00 0.00 71 1012.4
20260504141047 56 216 10.0 20.0 0.00 0.00 0.00 76 1013.2
20260504140548 55 186 12.0 26.0 0.00 0.00 0.00 76 1013.1
20260504140108 55 209 12.0 26.0 0.00 0.00 0.00 76 1013.1
20260504130547 53 220 12.0 19.0 0.00 0.00 0.00 79 1013.6
20260504120109 54 198 13.0 21.0 0.00 0.00 0.00 64 1013.0
20260504110549 51 154 8.0 14.0 0.00 0.00 0.00 64 1012.6
20260504110105 51 165 6.0 14.0 0.00 0.00 0.00 64 1012.6
20260504100549 51 175 6.0 10.0 0.00 0.00 0.00 61 1012.7
20260504081603 51 161 4.0 7.0 0.00 0.00 0.00 60 1013.2
20260504081048 51 159 4.0 9.0 0.00 0.00 0.00 60 1013.1
20260504080546 51 156 4.0 9.0 0.00 0.00 0.00 59 1013.2
20260504060105 53 187 5.0 7.0 0.00 0.00 0.00 59 1014.3
20260504050547 54 190 6.0 11.0 0.00 0.00 0.00 55 1014.7
20260504045548 53 179 5.0 16.0 0.00 0.00 0.00 58 1014.8
20260504045049 53 202 8.0 16.0 0.00 0.00 0.00 58 1014.7
20260504044554 53 163 8.0 15.0 0.00 0.00 0.00 56 1014.6
20260504044047 53 179 7.0 13.0 0.00 0.00 0.00 58 1014.3
20260504043547 53 136 6.0 10.0 0.00 0.00 0.00 59 1014.5
20260504043101 52 161 3.0 6.0 0.00 0.00 0.00 62 1014.9
20260504042546 52 175 2.0 5.0 0.00 0.00 0.00 65 1015.0
20260504042046 52 178 3.0 7.0 0.00 0.00 0.00 66 1015.0
20260504041555 52 184 3.0 7.0 0.00 0.00 0.00 68 1015.1
20260504041046 52 181 4.0 7.0 0.00 0.00 0.00 66 1015.2
20260504040551 52 175 3.0 7.0 0.00 0.00 0.00 64 1015.2
20260504040054 52 170 4.0 8.0 0.00 0.00 0.00 67 1015.2
20260504035547 53 179 5.0 8.0 0.00 0.00 0.00 67 1015.4
20260504035046 53 205 6.0 7.0 0.00 0.00 0.00 65 1015.4
20260504034556 54 210 2.0 5.0 0.00 0.00 0.00 61 1015.3
20260504034050 54 142 2.0 4.0 0.00 0.00 0.00 59 1015.1
20260504033547 54 0 1.0 3.0 0.00 0.00 0.00 61 1015.4
20260504033057 54 219 1.0 3.0 0.00 0.00 0.00 57 1015.4
20260504032547 54 196 1.0 4.0 0.00 0.00 0.00 58 1015.3
20260504032049 54 154 1.0 4.0 0.00 0.00 0.00 55 1015.0
20260504031601 54 124 2.0 3.0 0.00 0.00 0.00 54 1014.9
20260504031056 55 117 1.0 3.0 0.00 0.00 0.00 57 1015.0
20260504030544 55 140 0.0 3.0 0.00 0.00 0.00 58 1015.0
20260504030059 55 0 1.0 2.0 0.00 0.00 0.00 56 1015.2
20260504025548 55 194 1.0 4.0 0.00 0.00 0.00 56 1015.2
20260504025048 55 0 0.0 4.0 0.00 0.00 0.00 56 1015.1
20260504024601 56 107 3.0 4.0 0.00 0.00 0.00 52 1015.1
20260504024048 56 0 0.0 0.0 0.00 0.00 0.00 53 1015.3
20260504023551 56 0 0.0 0.0 0.00 0.00 0.00 53 1015.4
20260504023054 56 0 0.0 1.0 0.00 0.00 0.00 52 1015.4
20260504022546 56 0 0.0 2.0 0.00 0.00 0.00 50 1015.3
20260504022048 56 0 0.0 2.0 0.00 0.00 0.00 49 1015.1
20260504021556 56 238 1.0 2.0 0.00 0.00 0.00 50 1015.2
20260504021047 56 238 0.0 2.0 0.00 0.00 0.00 49 1015.0
20260504020547 56 238 1.0 3.0 0.00 0.00 0.00 48 1015.0
20260504020053 56 238 0.0 3.0 0.00 0.00 0.00 48 1015.0
20260504015544 57 238 1.0 3.0 0.00 0.00 0.00 47 1015.0
20260504015047 57 257 0.0 1.0 0.00 0.00 0.00 48 1014.9
20260504014558 57 0 0.0 0.0 0.00 0.00 0.00 48 1014.8
20260504014044 57 0 0.0 0.0 0.00 0.00 0.00 49 1014.7
20260504013546 57 0 0.0 0.0 0.00 0.00 0.00 44 1014.6
20260504013105 58 0 0.0 0.0 0.00 0.00 0.00 42 1014.5
20260504012546 58 0 0.0 2.0 0.00 0.00 0.00 40 1014.3
20260504012051 58 0 0.0 2.0 0.00 0.00 0.00 39 1014.2
20260504011554 58 115 1.0 2.0 0.00 0.00 0.00 40 1014.0
20260504011047 58 0 0.0 2.0 0.00 0.00 0.00 43 1014.2
20260504010547 58 0 0.0 2.0 0.00 0.00 0.00 41 1014.2
20260504010055 58 0 0.0 2.0 0.00 0.00 0.00 39 1014.4
20260504005547 58 0 0.0 1.0 0.00 0.00 0.00 39 1014.3
20260504005050 58 0 0.0 2.0 0.00 0.00 0.00 39 1014.2
20260504004602 58 0 0.0 2.0 0.00 0.00 0.00 38 1014.4
20260504004046 59 0 1.0 3.0 0.00 0.00 0.00 38 1014.5
20260504003547 59 296 2.0 3.0 0.00 0.00 0.00 38 1014.6
20260504003100 59 297 1.0 3.0 0.00 0.00 0.00 38 1014.6
20260504002547 59 198 1.0 4.0 0.00 0.00 0.00 37 1014.6
20260504002050 59 192 2.0 4.0 0.00 0.00 0.00 36 1014.6
20260504001556 59 193 3.0 4.0 0.00 0.00 0.00 36 1014.5
20260504001050 60 226 2.0 5.0 0.00 0.00 0.00 35 1014.6
20260504000546 60 185 3.0 5.0 0.00 0.00 0.00 35 1014.6
20260504000055 60 180 3.0 6.0 0.00 0.00 0.00 34 1014.6
20260503235546 60 196 3.0 6.0 0.00 0.00 0.00 35 1014.5
20260503235051 60 197 3.0 7.0 0.00 0.00 0.00 34 1014.6
20260503234555 60 202 5.0 11.0 0.00 0.00 0.00 33 1014.6
20260503234047 60 212 5.0 11.0 0.00 0.00 0.00 33 1014.7
20260503233547 60 196 6.0 9.0 0.00 0.00 0.00 32 1014.6
20260503233055 60 198 5.0 13.0 0.00 0.00 0.00 33 1014.6
20260503232545 61 198 8.0 13.0 0.00 0.00 0.00 33 1014.5
20260503232045 61 209 8.0 14.0 0.00 0.00 0.00 32 1014.6
20260503231555 61 215 5.0 14.0 0.00 0.00 0.00 32 1014.9
20260503231048 61 249 8.0 14.0 0.00 0.00 0.00 31 1014.9
20260503230547 61 213 9.0 15.0 0.00 0.00 0.00 31 1014.7
20260503230053 61 215 8.0 15.0 0.00 0.00 0.00 31 1014.7
20260503225545 61 213 11.0 15.0 0.00 0.00 0.00 31 1015.1
20260503225047 61 227 5.0 13.0 0.00 0.00 0.00 31 1014.9
20260503224550 61 187 7.0 15.0 0.00 0.00 0.00 30 1015.0
20260503224047 61 225 10.0 19.0 0.00 0.00 0.00 30 1015.1
20260503223547 61 242 12.0 19.0 0.00 0.00 0.00 30 1015.1
20260503223049 61 238 10.0 15.0 0.00 0.00 0.00 30 1015.4
20260503222546 61 188 9.0 16.0 0.00 0.00 0.00 30 1015.2
20260503222047 61 236 9.0 16.0 0.00 0.00 0.00 30 1015.3
20260503221553 61 189 10.0 17.0 0.00 0.00 0.00 31 1015.5
20260503221052 61 236 12.0 17.0 0.00 0.00 0.00 30 1015.5
20260503220547 61 210 6.0 17.0 0.00 0.00 0.00 31 1015.4
20260503220056 61 197 8.0 21.0 0.00 0.00 0.00 32 1015.3
20260503215546 61 232 15.0 21.0 0.00 0.00 0.00 30 1015.3
20260503215047 61 232 11.0 19.0 0.00 0.00 0.00 30 1015.4
20260503214551 61 214 10.0 19.0 0.00 0.00 0.00 30 1015.4
20260503214045 61 231 13.0 22.0 0.00 0.00 0.00 29 1015.4
20260503213545 62 197 13.0 22.0 0.00 0.00 0.00 30 1015.5
20260503213053 62 221 14.0 19.0 0.00 0.00 0.00 29 1015.5
20260503212545 62 194 10.0 19.0 0.00 0.00 0.00 31 1015.3
20260503212047 62 239 11.0 23.0 0.00 0.00 0.00 31 1015.3
20260503211600 61 263 14.0 23.0 0.00 0.00 0.00 31 1015.4
20260503211049 62 212 12.0 19.0 0.00 0.00 0.00 30 1015.5
20260503210547 61 249 14.0 19.0 0.00 0.00 0.00 30 1015.5
20260503210050 61 227 11.0 18.0 0.00 0.00 0.00 32 1015.6
20260503205548 61 209 10.0 18.0 0.00 0.00 0.00 30 1015.7
20260503205048 61 237 10.0 17.0 0.00 0.00 0.00 30 1015.8
20260503204549 62 234 11.0 17.0 0.00 0.00 0.00 31 1015.8
20260503204048 62 192 8.0 19.0 0.00 0.00 0.00 30 1015.9
20260503203548 61 238 10.0 19.0 0.00 0.00 0.00 33 1015.9
20260503203053 61 206 9.0 21.0 0.00 0.00 0.00 31 1016.0
20260503202550 61 216 11.0 21.0 0.00 0.00 0.00 31 1016.1
20260503202049 60 248 13.0 19.0 0.00 0.00 0.00 31 1016.2
20260503201552 60 232 8.0 21.0 0.00 0.00 0.00 32 1016.2
20260503201048 61 202 12.0 21.0 0.00 0.00 0.00 30 1016.3
20260503200548 62 240 12.0 21.0 0.00 0.00 0.00 32 1016.5
20260503200055 61 217 10.0 20.0 0.00 0.00 0.00 30 1016.6
20260503195548 61 265 14.0 20.0 0.00 0.00 0.00 31 1016.7
20260503195048 61 249 5.0 12.0 0.00 0.00 0.00 31 1016.8
20260503194551 60 165 7.0 19.0 0.00 0.00 0.00 32 1016.8
20260503194047 60 232 10.0 19.0 0.00 0.00 0.00 31 1016.9
20260503193547 61 215 10.0 19.0 0.00 0.00 0.00 30 1017.0
20260503193057 61 271 8.0 18.0 0.00 0.00 0.00 31 1017.1
20260503192547 61 188 11.0 18.0 0.00 0.00 0.00 30 1017.1
20260503192048 61 207 6.0 14.0 0.00 0.00 0.00 30 1017.2
20260503191551 60 268 7.0 16.0 0.00 0.00 0.00 31 1017.4
20260503191048 60 207 8.0 16.0 0.00 0.00 0.00 31 1017.4
20260503190549 60 159 7.0 17.0 0.00 0.00 0.00 30 1017.6
20260503190056 60 134 10.0 17.0 0.00 0.00 0.00 30 1017.7
20260503185548 60 216 3.0 8.0 0.00 0.00 0.00 32 1017.7